Wind_Speed
5 5 5 5 5 4 4 4 4 4 4 4 4 5 6 6 7 8 8 9 9 10 11 12 12 13 14 15 16 16 16 16 17 17 18 18 18 17 17 17 17 18 18
6 6 6 6 5 5 5 5 5 5 6 6 6 7 8 8 8 9 9 10 11 11 12 13 14 14 15 16 17 17 17 17 18 18 19 19 19 19 18 18 18 19 19
8 8 8 8 7 7 7 6 6 7 8 8 9 9 9 10 10 10 10 11 12 13 14 15 15 16 16 17 18 18 18 18 19 19 20 20 20 20 20 20 20 20 20
10 9 9 9 9 9 9 9 9 9 10 10 11 11 11 11 12 12 12 13 13 14 15 16 17 17 17 18 19 20 20 19 20 20 21 21 21 21 21 21 21 21 21
12 12 12 12 12 12 12 11 11 11 11 12 12 12 12 13 14 15 14 15 16 16 17 17 18 19 19 19 20 21 21 21 21 21 21 22 22 22 22 22 22 22 22
14 14 15 15 15 15 14 14 13 13 13 13 13 14 14 15 16 17 17 17 18 18 19 19 20 20 21 21 22 22 22 22 21 22 22 22 23 23 23 23 23 23 23
15 15 16 17 17 17 17 17 16 16 15 14 15 15 16 17 18 18 19 19 20 21 22 22 22 23 23 24 23 23 23 23 23 23 23 23 24 24 24 24 25 24 24
17 18 19 19 19 19 19 18 18 16 16 16 16 16 17 18 19 20 21 20 21 22 23 23 24 25 26 26 25 25 25 25 24 24 25 25 25 26 26 26 26 26 25
20 20 20 21 20 21 21 20 19 18 18 19 19 19 19 20 20 21 22 23 23 25 26 26 26 27 28 28 28 27 26 26 26 26 26 26 27 28 28 28 27 27 27
22 22 21 21 21 22 22 22 21 21 21 21 21 22 22 22 23 24 25 26 26 27 28 29 29 29 29 30 30 29 28 27 27 27 27 28 28 29 29 29 29 28 28
23 23 22 22 22 22 23 23 23 24 24 24 24 24 24 25 25 26 28 29 29 30 31 31 31 31 31 31 31 30 29 28 28 28 29 29 30 31 30 30 30 30 29
24 24 23 23 23 23 24 24 25 25 25 26 27 27 27 27 28 29 30 31 32 32 32 33 33 34 33 34 32 31 30 30 30 30 30 31 31 31 31 31 31 31 31
24 24 25 25 25 25 26 26 27 27 28 28 29 29 30 30 31 31 32 33 33 34 34 35 35 35 35 34 32 32 31 31 31 31 31 31 32 32 32 32 32 32 32
26 26 26 27 27 28 28 28 29 29 30 31 32 32 32 32 32 32 33 34 35 35 35 34 35 35 34 33 32 32 32 32 32 31 31 31 32 33 33 33 34 34 33
27 28 28 29 29 29 29 30 31 31 32 33 32 32 32 33 33 33 34 35 35 35 35 35 34 34 34 34 34 33 32 33 32 32 32 33 33 33 33 33 34 34 33
29 29 29 30 31 30 30 31 31 33 33 33 33 33 34 34 34 34 35 36 37 38 37 37 36 36 36 36 36 34 34 34 35 35 35 35 35 35 34 34 34 33 33
31 30 30 30 31 31 32 33 33 34 35 34 33 34 34 35 35 35 36 37 38 38 38 38 37 37 37 37 37 36 36 36 36 36 37 37 36 35 35 34 33 34 34
32 32 32 32 33 34 34 34 35 35 35 36 35 36 36 36 36 36 38 39 39 39 38 38 38 38 38 38 37 37 37 37 37 37 37 38 37 36 35 34 34 34 34
33 33 33 34 34 34 34 34 36 36 36 37 37 36 36 37 37 37 38 38 39 39 39 39 38 38 38 38 38 37 38 37 37 37 38 38 38 37 36 36 36 35 35
34 35 35 35 35 36 35 36 35 36 36 37 37 37 37 38 38 37 37 38 39 39 39 38 38 38 38 38 38 38 37 37 38 38 38 38 38 38 37 37 37 37 36
35 35 35 35 36 36 36 36 36 35 35 34 35 35 37 38 38 38 38 39 39 40 39 38 37 36 37 36 37 37 37 37 38 38 39 40 40 40 40 39 38 37 37
33 33 33 33 34 34 34 35 36 35 35 35 35 35 36 37 38 37 38 38 39 39 38 38 37 37 37 37 37 37 37 38 39 40 40 40 40 40 39 39 38 38 37
33 33 33 34 34 34 34 34 34 34 35 34 35 36 36 37 37 37 37 36 37 38 38 38 38 38 38 38 38 38 38 39 39 40 40 40 40 40 38 37 37 37 37
33 33 34 34 35 35 35 35 35 35 36 36 37 37 37 36 36 36 36 37 37 37 37 38 38 39 39 39 39 39 39 39 39 39 39 38 38 38 38 37 37 37 37
34 34 34 35 35 36 36 36 36 37 37 38 38 38 37 36 36 37 37 38 37 38 38 39 39 39 40 40 39 39 39 39 39 39 38 38 38 37 37 37 36 36 36
33 34 34 35 35 36 36 36 37 37 38 38 38 38 38 38 38 38 39 39 39 39 40 40 40 41 41 40 40 40 40 40 40 39 38 38 37 36 36 36 36 35 35
Wind_Direction
288 281 282 286 284 280 279 272 275 284 296 308 311 316 317 319 321 324 324 326 328 328 328 327 326 325 325 326 327 326 325 324 324 324 324 324 322 319 315 312 310 309 306
283 278 279 282 279 279 286 287 279 279 282 290 299 306 309 311 315 317 319 319 317 317 320 321 322 321 322 324 324 323 322 322 322 323 323 322 321 320 316 313 311 309 307
277 275 275 278 279 279 284 284 283 283 284 287 291 298 304 307 310 312 314 315 314 314 315 317 319 318 319 321 321 322 321 320 320 320 320 320 319 318 315 312 310 308 307
272 273 274 278 276 275 277 280 282 285 286 288 291 291 295 300 303 306 305 308 310 313 314 315 316 315 315 316 318 319 319 319 319 318 319 319 318 316 314 312 310 307 306
273 273 274 274 275 277 277 278 280 283 286 288 289 288 290 294 298 302 304 306 309 313 312 312 313 313 313 314 315 316 316 316 315 315 316 317 316 315 313 311 310 308 307
270 273 274 273 273 275 275 276 277 280 284 288 288 290 292 292 295 299 303 303 305 307 308 309 310 310 310 311 312 313 314 314 314 313 313 314 314 313 311 310 309 308 307
270 273 274 274 273 273 274 276 277 278 282 285 289 293 294 295 295 296 297 298 301 303 306 305 306 307 308 308 307 308 310 310 310 311 311 312 312 311 311 310 309 308 306
272 272 274 276 276 275 273 276 276 277 281 284 287 291 293 295 296 296 299 298 299 301 303 304 303 303 305 306 305 305 305 306 306 307 308 308 308 309 309 308 308 307 305
273 275 277 278 279 277 276 276 277 278 279 281 284 287 289 291 293 295 297 298 298 300 301 301 301 302 302 305 304 302 301 301 302 302 303 304 305 306 306 306 305 306 305
273 274 277 278 279 279 277 276 277 278 279 281 284 285 287 289 290 292 295 296 296 297 298 299 301 302 302 304 305 302 299 300 300 300 301 302 302 303 304 305 304 303 302
271 271 274 276 278 280 279 278 277 277 277 279 281 282 284 286 288 290 293 294 295 295 296 297 298 299 300 301 303 303 300 298 298 299 299 299 300 302 302 302 303 301 300
271 270 272 274 277 279 279 280 279 277 276 277 279 281 283 285 287 290 291 292 293 294 295 296 298 298 298 300 300 300 300 298 298 298 299 299 300 300 301 301 302 301 300
269 270 273 274 275 278 279 279 279 278 278 278 278 280 283 285 286 288 289 292 293 294 294 295 297 297 297 297 298 298 297 297 296 297 298 298 299 299 299 299 300 300 300
271 270 273 275 275 277 279 279 280 279 279 281 280 282 284 286 286 287 289 291 292 293 294 295 296 296 297 295 296 298 297 296 295 296 297 298 297 297 297 298 298 299 299
272 273 273 274 276 277 278 280 281 282 282 283 282 282 284 285 286 287 289 290 292 293 293 295 296 296 296 295 295 296 296 295 295 295 296 297 297 297 296 296 297 298 298
274 276 276 277 277 278 279 279 280 281 281 282 283 284 284 283 284 287 290 292 292 293 293 295 295 294 294 293 293 294 295 295 296 295 294 295 295 295 295 296 296 297 299
275 277 278 279 280 280 281 281 281 282 282 281 281 282 283 283 285 287 289 291 292 293 294 295 294 293 293 293 293 293 293 293 294 294 294 295 295 294 294 295 295 295 296
275 276 278 279 279 279 281 282 282 281 280 280 281 281 283 283 284 286 287 290 291 292 293 293 293 293 293 293 293 292 292 292 292 292 293 293 293 292 291 293 294 294 294
274 275 276 278 278 278 279 281 282 282 281 281 282 282 283 283 284 285 287 289 290 291 292 292 292 292 292 292 291 292 292 292 291 291 292 292 292 291 291 291 292 292 293
275 275 276 277 278 279 279 280 281 282 283 283 284 284 284 284 285 286 287 288 290 292 293 293 292 291 292 291 291 292 293 292 291 290 290 290 290 290 290 290 290 290 290
275 275 275 275 276 277 278 279 279 280 284 285 285 284 284 285 286 287 289 291 292 292 292 293 294 293 293 293 293 293 292 292 292 291 291 290 290 290 289 289 288 287 287
276 275 277 278 278 278 279 279 278 280 284 286 286 287 287 286 287 288 289 290 290 292 292 293 294 295 295 295 294 293 292 293 293 292 290 289 288 288 287 287 286 287 287
277 277 277 279 280 279 280 280 280 282 285 286 287 289 289 289 288 289 289 290 290 292 293 295 295 295 295 295 294 295 294 293 293 293 291 289 288 287 287 285 285 285 287
275 277 279 280 281 281 282 282 282 284 284 286 287 288 289 290 289 289 289 290 292 292 294 295 296 295 294 294 293 293 293 294 294 293 291 288 287 286 286 285 284 285 286
276 277 278 279 281 281 281 281 281 281 282 284 285 286 287 289 289 289 289 290 290 292 295 296 296 295 295 294 293 293 293 293 293 292 290 288 286 285 284 284 285 286 287
279 279 279 279 280 280 280 280 280 281 282 283 283 284 286 288 289 289 289 290 290 292 293 294 295 296 295 294 293 293 292 292 292 290 289 288 287 286 285 284 284 285 286
Height
5904 5904 5903 5903 5902 5901 5900 5900 5900 5899 5899 5898 5898 5897 5896 5894 5893 5892 5890 5889 5887 5886 5884 5882 5880 5878 5876 5874 5871 5869 5866 5864 5861 5858 5855 5852 5849 5847 5844 5842 5840 5837 5836
5903 5903 5902 5902 5901 5900 5899 5899 5898 5898 5897 5897 5896 5895 5894 5893 5892 5890 5889 5887 5886 5884 5882 5880 5878 5876 5873 5871 5868 5866 5863 5860 5858 5855 5852 5849 5846 5843 5840 5838 5836 5833 5831
5901 5901 5900 5900 5899 5899 5898 5898 5897 5896 5895 5895 5894 5893 5892 5891 5889 5888 5886 5885 5883 5881 5879 5877 5875 5872 5870 5868 5865 5862 5859 5857 5854 5851 5848 5845 5842 5839 5836 5834 5831 5829 5826
5899 5899 5898 5898 5897 5897 5896 5895 5895 5894 5893 5892 5891 5890 5889 5888 5886 5885 5884 5882 5880 5878 5876 5874 5871 5869 5866 5864 5861 5858 5855 5853 5850 5847 5844 5841 5838 5835 5832 5829 5826 5824 5821
5896 5896 5895 5895 5894 5894 5893 5893 5892 5891 5890 5889 5888 5887 5885 5884 5883 5882 5880 5878 5877 5874 5872 5870 5868 5865 5863 5860 5857 5854 5851 5848 5845 5842 5839 5836 5833 5830 5827 5824 5821 5818 5816
5892 5892 5892 5891 5891 5890 5890 5889 5888 5887 5886 5885 5884 5883 5882 5880 5879 5878 5876 5874 5872 5870 5868 5865 5863 5861 5858 5855 5852 5849 5847 5844 5841 5838 5834 5831 5828 5825 5822 5819 5816 5813 5811
5888 5888 5888 5887 5886 5886 5885 5885 5884 5883 5882 5881 5880 5879 5878 5876 5875 5873 5871 5870 5868 5865 5863 5860 5858 5855 5853 5850 5847 5844 5842 5838 5835 5833 5829 5826 5823 5820 5817 5814 5810 5807 5804
5884 5883 5883 5882 5881 5881 5880 5880 5879 5878 5878 5877 5876 5874 5873 5872 5870 5868 5866 5864 5862 5860 5857 5855 5852 5850 5847 5843 5841 5838 5835 5833 5830 5827 5824 5820 5817 5814 5811 5807 5804 5801 5798
5879 5878 5877 5876 5876 5875 5875 5874 5874 5873 5872 5872 5871 5869 5868 5867 5865 5863 5861 5859 5856 5854 5851 5849 5845 5843 5840 5837 5834 5832 5829 5826 5823 5820 5817 5814 5811 5807 5804 5801 5797 5794 5791
5873 5872 5871 5871 5870 5869 5869 5868 5868 5867 5866 5866 5865 5864 5862 5861 5859 5857 5855 5852 5850 5848 5845 5842 5839 5836 5833 5830 5827 5824 5822 5819 5816 5813 5810 5807 5804 5800 5797 5794 5790 5787 5784
5866 5865 5865 5864 5864 5863 5862 5861 5860 5860 5860 5859 5858 5857 5855 5854 5852 5850 5848 5845 5843 5840 5837 5835 5832 5829 5825 5822 5819 5817 5814 5811 5808 5806 5802 5799 5796 5793 5789 5786 5782 5779 5776
5860 5859 5859 5858 5857 5856 5855 5854 5852 5852 5851 5851 5850 5849 5847 5846 5845 5843 5840 5838 5835 5832 5829 5826 5823 5820 5817 5814 5811 5808 5805 5803 5800 5797 5794 5791 5788 5785 5781 5778 5775 5771 5768
5853 5853 5852 5851 5850 5849 5848 5847 5845 5844 5843 5842 5841 5840 5839 5837 5836 5834 5832 5829 5826 5823 5820 5818 5814 5811 5808 5805 5802 5800 5796 5794 5791 5788 5785 5782 5779 5776 5773 5769 5766 5763 5760
5846 5845 5844 5843 5842 5841 5840 5839 5838 5836 5835 5834 5832 5831 5829 5828 5826 5824 5822 5820 5818 5814 5811 5808 5805 5802 5799 5795 5793 5790 5787 5785 5782 5779 5776 5773 5770 5767 5764 5761 5757 5754 5751
5839 5838 5837 5836 5835 5833 5832 5831 5829 5828 5826 5824 5822 5821 5820 5818 5816 5815 5812 5810 5808 5805 5802 5799 5796 5793 5790 5786 5784 5781 5778 5776 5773 5770 5767 5764 5760 5757 5754 5751 5748 5745 5741
5831 5830 5828 5827 5826 5825 5823 5822 5820 5818 5816 5814 5813 5811 5809 5808 5806 5804 5802 5800 5797 5794 5791 5789 5786 5783 5780 5777 5774 5771 5768 5766 5763 5760 5757 5754 5751 5748 5745 5742 5738 5735 5732
5822 5821 5819 5818 5817 5815 5813 5812 5810 5808 5806 5804 5803 5801 5800 5798 5796 5794 5791 5789 5787 5784 5781 5778 5775 5772 5769 5766 5763 5761 5758 5755 5753 5749 5747 5744 5741 5737 5735 5732 5729 5726 5723
5813 5812 5810 5809 5807 5806 5804 5801 5799 5797 5795 5793 5792 5791 5789 5787 5786 5783 5781 5778 5776 5773 5770 5767 5764 5761 5758 5755 5753 5750 5747 5744 5741 5739 5736 5733 5730 5727 5724 5721 5719 5716 5713
5803 5802 5801 5799 5797 5795 5793 5791 5788 5786 5784 5783 5781 5780 5778 5776 5774 5773 5770 5767 5765 5762 5759 5756 5753 5750 5747 5744 5741 5738 5735 5732 5730 5727 5724 5722 5719 5716 5713 5711 5709 5706 5703
5793 5792 5790 5789 5787 5785 5782 5780 5778 5776 5774 5772 5770 5769 5767 5765 5763 5761 5759 5756 5753 5751 5748 5745 5742 5739 5735 5733 5729 5727 5724 5721 5718 5716 5713 5710 5707 5705 5702 5700 5698 5695 5693
5783 5781 5780 5778 5776 5774 5772 5769 5767 5765 5763 5761 5759 5758 5756 5754 5752 5750 5748 5746 5743 5740 5737 5734 5730 5727 5724 5721 5718 5715 5712 5709 5706 5703 5701 5698 5695 5693 5690 5688 5686 5684 5682
5771 5770 5769 5767 5765 5763 5761 5759 5757 5755 5754 5752 5750 5748 5746 5744 5742 5739 5737 5735 5732 5729 5726 5723 5719 5716 5713 5710 5706 5703 5700 5697 5694 5691 5688 5686 5683 5681 5678 5676 5674 5673 5671
5761 5760 5759 5757 5755 5753 5751 5749 5747 5746 5744 5742 5740 5738 5736 5733 5731 5729 5726 5724 5721 5718 5715 5712 5709 5705 5702 5698 5695 5691 5688 5685 5682 5679 5676 5673 5671 5668 5666 5664 5662 5661 5659
5751 5750 5748 5746 5744 5742 5741 5739 5737 5736 5734 5732 5730 5728 5726 5723 5721 5719 5716 5714 5711 5707 5704 5701 5698 5694 5690 5686 5683 5679 5676 5673 5670 5667 5664 5661 5659 5657 5654 5652 5651 5649 5647
5740 5739 5738 5736 5734 5732 5730 5728 5727 5725 5724 5722 5720 5718 5715 5713 5710 5708 5705 5702 5699 5696 5693 5690 5686 5683 5679 5675 5671 5667 5664 5661 5657 5654 5652 5649 5647 5645 5643 5641 5639 5637 5635
5729 5728 5727 5725 5723 5721 5719 5717 5715 5713 5712 5711 5709 5707 5704 5702 5699 5696 5694 5691 5688 5685 5681 5678 5675 5671 5667 5663 5659 5655 5652 5649 5646 5642 5640 5637 5635 5633 5631 5629 5627 5625 5624